Terminal Aerodrome Forecast
Issued by NWS Rapid City, SD

Home | Current Version | Previous Version | Graphics & Text | Print | Product List | Glossary On
Versions: 1 2 3 4 5 6 7 8 9 10 11 12 13 14 15 16 17 18 19 20 21
000
FTUS43 KUNR 192300
TAFRAP
TAF
KRAP 192322Z 2000/2024 VRB05KT P6SM BKN150
     FM200300 12005KT P6SM SCT050 BKN100
      TEMPO 2004/2008 -TSRA BKN050CB
     FM201900 34014KT P6SM BKN050=

USA.gov is the U.S. government's official web portal to all federal, state and local government web resources and services.